Peotone Weather
Station Historical Data
 
Daily Summary for January 23, 2017 Units:  English    Metric   Both
« Previous Day
Next Day »
Daily Weekly Monthly Yearly Custom
  Current: High: Low: Average:
Temperature: 38.2 °F 39.7 °F 38.2 °F 39.2 °F
Dew Point: 36.4 °F 38.0 °F 36.4 °F 37.5 °F
Humidity: 93% 94% 93% 94%
Wind Speed: 8.1mph 16.1mph 2.3mph 7.3mph
Wind Gust: 11.5mph 18.4mph - -
WindNNW - - NNW
Pressure: 29.74 in 29.74 in 29.68 in -
Precipitation: 0.00 in      
Historical Graphs
 
 
Tabular Data for January 23, 2017
Time Temperature Dew Point Pressure Wind Wind Speed Wind Gust Humidity Rainfall Rate (Hourly) solar Conditions
00:00 39.7 °F 37.8 °F 29.69 in NNW 4.6 mph 9.2 mph 93% 0.00 in 0.00 W/m2
00:03 39.7 °F 37.8 °F 29.69 in NNW 4.6 mph 8.1 mph 93% 0.00 in 0.00 W/m2
00:05 39.7 °F 37.8 °F 29.69 in NNW 5.8 mph 10.4 mph 93% 0.00 in 0.00 W/m2
00:08 39.7 °F 37.8 °F 29.69 in NNW 6.9 mph 6.9 mph 93% 0.00 in 0.00 W/m2
00:10 39.7 °F 37.8 °F 29.69 in NNW 5.8 mph 6.9 mph 93% 0.00 in 0.00 W/m2
00:13 39.7 °F 37.8 °F 29.69 in NNW 5.8 mph 6.9 mph 93% 0.00 in 0.00 W/m2
00:15 39.6 °F 37.8 °F 29.69 in NNW 4.6 mph 6.9 mph 93% 0.00 in 0.00 W/m2
00:18 39.6 °F 37.8 °F 29.70 in NNW 2.3 mph 5.8 mph 93% 0.00 in 0.00 W/m2
00:20 39.6 °F 37.8 °F 29.69 in NNW 4.6 mph 6.9 mph 93% 0.00 in 0.00 W/m2
00:23 39.6 °F 37.8 °F 29.69 in NW 5.8 mph 8.1 mph 93% 0.00 in 0.00 W/m2
00:25 39.6 °F 37.8 °F 29.69 in NNW 3.5 mph 8.1 mph 93% 0.00 in 0.00 W/m2
00:28 39.6 °F 37.8 °F 29.69 in NNW 4.6 mph 4.6 mph 93% 0.00 in 0.00 W/m2
00:30 39.6 °F 37.8 °F 29.69 in NNW 3.5 mph 5.8 mph 93% 0.00 in 0.00 W/m2
00:33 39.6 °F 37.8 °F 29.69 in NNW 4.6 mph 8.1 mph 93% 0.00 in 0.00 W/m2
00:35 39.5 °F 37.7 °F 29.69 in NNW 8.1 mph 9.2 mph 93% 0.00 in 0.00 W/m2
00:38 39.5 °F 37.7 °F 29.69 in NW 8.1 mph 9.2 mph 93% 0.00 in 0.00 W/m2
00:40 39.5 °F 37.7 °F 29.69 in NW 6.9 mph 9.2 mph 93% 0.00 in 0.00 W/m2
00:43 39.5 °F 37.7 °F 29.69 in NNW 5.8 mph 9.2 mph 93% 0.00 in 0.00 W/m2
00:45 39.5 °F 37.7 °F 29.68 in NNW 5.8 mph 9.2 mph 93% 0.00 in 0.00 W/m2
00:48 39.5 °F 37.7 °F 29.69 in NNW 6.9 mph 9.2 mph 93% 0.00 in 0.00 W/m2
00:50 39.5 °F 37.7 °F 29.69 in NNW 5.8 mph 9.2 mph 93% 0.00 in 0.00 W/m2
00:53 39.4 °F 37.5 °F 29.69 in NNW 6.9 mph 9.2 mph 93% 0.00 in 0.00 W/m2
00:55 39.4 °F 37.5 °F 29.69 in North 5.8 mph 9.2 mph 93% 0.00 in 0.00 W/m2
00:58 39.4 °F 37.5 °F 29.69 in NNW 5.8 mph 8.1 mph 93% 0.00 in 0.00 W/m2
01:00 39.4 °F 37.5 °F 29.69 in NNW 4.6 mph 9.2 mph 93% 0.00 in 0.00 W/m2
01:04 39.4 °F 37.5 °F 29.69 in NNW 8.1 mph 8.1 mph 93% 0.00 in 0.00 W/m2
01:05 39.4 °F 37.5 °F 29.69 in NNW 8.1 mph 9.2 mph 93% 0.00 in 0.00 W/m2
01:09 39.4 °F 37.5 °F 29.69 in NNW 3.4 mph 9.2 mph 93% 0.00 in 0.00 W/m2
01:10 39.5 °F 37.9 °F 29.69 in North 8.1 mph 10.4 mph 94% 0.00 in 0.00 W/m2
01:14 39.4 °F 37.8 °F 29.69 in NNW 5.8 mph 9.2 mph 94% 0.00 in 0.00 W/m2
01:15 39.5 °F 37.9 °F 29.69 in NNW 9.2 mph 11.5 mph 94% 0.00 in 0.00 W/m2
01:19 39.5 °F 37.9 °F 29.69 in North 9.2 mph 12.6 mph 94% 0.00 in 0.00 W/m2
01:20 39.5 °F 37.9 °F 29.69 in NNW 5.8 mph 12.6 mph 94% 0.00 in 0.00 W/m2
01:24 39.5 °F 37.9 °F 29.69 in NNW 8.1 mph 11.5 mph 94% 0.00 in 0.00 W/m2
01:25 39.5 °F 37.9 °F 29.69 in NNW 6.9 mph 12.6 mph 94% 0.00 in 0.00 W/m2
01:29 39.5 °F 37.9 °F 29.69 in NNW 10.3 mph 12.6 mph 94% 0.00 in 0.00 W/m2
01:30 39.5 °F 37.9 °F 29.69 in NW 9.2 mph 12.6 mph 94% 0.00 in 0.00 W/m2
01:34 39.5 °F 37.9 °F 29.69 in NNW 6.9 mph 13.8 mph 94% 0.00 in 0.00 W/m2
01:35 39.5 °F 37.9 °F 29.69 in North 5.8 mph 13.8 mph 94% 0.00 in 0.00 W/m2
01:39 39.5 °F 37.9 °F 29.69 in NNW 12.6 mph 14.9 mph 94% 0.00 in 0.00 W/m2
01:40 39.6 °F 38.0 °F 29.69 in NNW 9.2 mph 14.9 mph 94% 0.00 in 0.00 W/m2
01:44 39.6 °F 38.0 °F 29.69 in NNW 8.1 mph 13.8 mph 94% 0.00 in 0.00 W/m2
01:45 39.6 °F 38.0 °F 29.69 in NW 5.8 mph 13.8 mph 94% 0.00 in 0.00 W/m2
01:49 39.6 °F 38.0 °F 29.69 in NNW 6.9 mph 11.5 mph 94% 0.00 in 0.00 W/m2
01:50 39.6 °F 38.0 °F 29.69 in North 10.4 mph 11.5 mph 94% 0.00 in 0.00 W/m2
01:54 39.6 °F 38.0 °F 29.69 in NNW 8.1 mph 12.6 mph 94% 0.00 in 0.00 W/m2
01:55 39.6 °F 38.0 °F 29.69 in NW 9.2 mph 12.6 mph 94% 0.00 in 0.00 W/m2
01:59 39.6 °F 38.0 °F 29.69 in North 4.6 mph 9.2 mph 94% 0.00 in 0.00 W/m2
02:00 39.6 °F 38.0 °F 29.69 in North 6.9 mph 11.5 mph 94% 0.00 in 0.00 W/m2
02:04 39.6 °F 38.0 °F 29.69 in North 8.1 mph 11.5 mph 94% 0.00 in 0.00 W/m2
02:05 39.6 °F 38.0 °F 29.69 in NNW 9.2 mph 12.6 mph 94% 0.00 in 0.00 W/m2
02:09 39.6 °F 38.0 °F 29.70 in NNW 6.9 mph 14.9 mph 94% 0.00 in 0.00 W/m2
02:10 39.6 °F 38.0 °F 29.70 in North 11.5 mph 14.9 mph 94% 0.00 in 0.00 W/m2
02:14 39.6 °F 38.0 °F 29.70 in NNW 4.6 mph 11.5 mph 94% 0.00 in 0.00 W/m2
02:15 39.6 °F 38.0 °F 29.70 in NNW 6.9 mph 11.5 mph 94% 0.00 in 0.00 W/m2
02:19 39.6 °F 38.0 °F 29.70 in NNW 5.8 mph 10.3 mph 94% 0.00 in 0.00 W/m2
02:20 39.6 °F 38.0 °F 29.70 in North 8.1 mph 10.4 mph 94% 0.00 in 0.00 W/m2
02:25 39.6 °F 38.0 °F 29.70 in NNW 10.3 mph 10.3 mph 94% 0.00 in 0.00 W/m2
02:30 39.6 °F 38.0 °F 29.70 in North 5.8 mph 10.3 mph 94% 0.00 in 0.00 W/m2
02:35 39.5 °F 37.9 °F 29.70 in North 16.1 mph 16.1 mph 94% 0.00 in 0.00 W/m2
02:40 39.5 °F 37.9 °F 29.70 in NNW 8.1 mph 13.8 mph 94% 0.00 in 0.00 W/m2
02:45 39.5 °F 37.9 °F 29.70 in NNW 9.2 mph 13.8 mph 94% 0.00 in 0.00 W/m2
02:50 39.4 °F 37.8 °F 29.70 in NNW 12.6 mph 18.4 mph 94% 0.00 in 0.00 W/m2
02:55 39.3 °F 37.7 °F 29.70 in NNW 9.2 mph 14.9 mph 94% 0.00 in 0.00 W/m2
03:00 39.3 °F 37.7 °F 29.70 in NNW 4.6 mph 12.6 mph 94% 0.00 in 0.00 W/m2
03:06 39.3 °F 37.7 °F 29.70 in NW 4.6 mph 4.6 mph 94% 0.00 in 0.00 W/m2
03:11 39.2 °F 37.6 °F 29.70 in NNW 11.5 mph 11.5 mph 94% 0.00 in 0.00 W/m2
03:16 39.2 °F 37.6 °F 29.71 in North 4.6 mph 12.6 mph 94% 0.00 in 0.00 W/m2
03:21 39.2 °F 37.6 °F 29.70 in NNW 5.8 mph 13.8 mph 94% 0.00 in 0.00 W/m2
03:26 39.1 °F 37.5 °F 29.70 in NNW 4.6 mph 10.3 mph 94% 0.00 in 0.00 W/m2
03:31 39.1 °F 37.5 °F 29.71 in NNW 5.8 mph 13.8 mph 94% 0.00 in 0.00 W/m2
03:36 39.1 °F 37.5 °F 29.71 in North 5.8 mph 6.9 mph 94% 0.00 in 0.00 W/m2
03:41 39.1 °F 37.5 °F 29.71 in North 3.4 mph 8.1 mph 94% 0.00 in 0.00 W/m2
03:46 39.1 °F 37.5 °F 29.71 in NNW 9.2 mph 9.2 mph 94% 0.00 in 0.00 W/m2
03:51 39.1 °F 37.5 °F 29.72 in North 5.8 mph 5.8 mph 94% 0.00 in 0.00 W/m2
03:56 39.1 °F 37.5 °F 29.72 in NW 5.8 mph 8.1 mph 94% 0.00 in 0.00 W/m2
04:01 39.1 °F 37.5 °F 29.72 in NNW 4.6 mph 8.1 mph 94% 0.00 in 0.00 W/m2
04:06 39.0 °F 37.4 °F 29.72 in NNW 9.2 mph 9.2 mph 94% 0.00 in 0.00 W/m2
04:11 39.0 °F 37.4 °F 29.72 in NNW 6.9 mph 9.2 mph 94% 0.00 in 0.00 W/m2
04:16 38.9 °F 37.3 °F 29.72 in North 6.9 mph 6.9 mph 94% 0.00 in 0.00 W/m2
04:21 38.9 °F 37.3 °F 29.72 in NNW 3.4 mph 8.1 mph 94% 0.00 in 0.00 W/m2
04:27 38.8 °F 37.2 °F 29.72 in NNW 6.9 mph 9.2 mph 94% 0.00 in 0.00 W/m2
04:32 38.7 °F 37.1 °F 29.73 in North 10.3 mph 11.5 mph 94% 0.00 in 0.00 W/m2
04:37 38.7 °F 37.1 °F 29.72 in NNW 4.6 mph 10.3 mph 94% 0.00 in 0.00 W/m2
04:42 38.6 °F 37.0 °F 29.73 in NNW 8.1 mph 10.3 mph 94% 0.00 in 0.00 W/m2
04:47 38.6 °F 37.0 °F 29.73 in NNW 12.6 mph 12.6 mph 94% 0.00 in 0.00 W/m2
04:52 38.5 °F 36.9 °F 29.73 in NNW 11.5 mph 16.1 mph 94% 0.00 in 0.00 W/m2
04:57 38.5 °F 36.9 °F 29.73 in NNW 6.9 mph 11.5 mph 94% 0.00 in 0.00 W/m2
05:02 38.4 °F 36.6 °F 29.73 in NW 4.6 mph 12.6 mph 93% 0.00 in 0.00 W/m2
05:07 38.4 °F 36.6 °F 29.73 in NNW 5.8 mph 13.8 mph 93% 0.00 in 0.00 W/m2
05:12 38.3 °F 36.5 °F 29.73 in NNW 9.2 mph 14.9 mph 93% 0.00 in 0.00 W/m2
05:17 38.2 °F 36.4 °F 29.73 in North 9.2 mph 11.5 mph 93% 0.00 in 0.00 W/m2
05:22 38.2 °F 36.4 °F 29.73 in North 14.9 mph 16.1 mph 93% 0.00 in 0.00 W/m2
05:27 38.2 °F 36.4 °F 29.73 in NNE 9.2 mph 14.9 mph 93% 0.00 in 0.00 W/m2
05:32 38.3 °F 36.5 °F 29.73 in NNW 10.3 mph 12.6 mph 93% 0.00 in 0.00 W/m2
05:37 38.3 °F 36.5 °F 29.73 in North 10.3 mph 10.3 mph 93% 0.00 in 0.00 W/m2
05:43 38.3 °F 36.5 °F 29.73 in NNW 9.2 mph 11.5 mph 93% 0.00 in 0.00 W/m2
05:48 38.3 °F 36.5 °F 29.73 in NNW 6.9 mph 9.2 mph 93% 0.00 in 0.00 W/m2
05:53 38.3 °F 36.5 °F 29.73 in North 8.1 mph 9.2 mph 93% 0.00 in 0.00 W/m2
05:58 38.2 °F 36.4 °F 29.73 in NW 9.2 mph 10.3 mph 93% 0.00 in 0.00 W/m2
06:03 38.3 °F 36.5 °F 29.73 in NNW 5.8 mph 10.3 mph 93% 0.00 in 0.00 W/m2
06:08 38.3 °F 36.5 °F 29.73 in NNW 8.1 mph 10.3 mph 93% 0.00 in 0.00 W/m2
06:13 38.2 °F 36.4 °F 29.73 in NNW 8.1 mph 9.2 mph 93% 0.00 in 0.00 W/m2
06:18 38.2 °F 36.4 °F 29.74 in NNW 11.5 mph 11.5 mph 93% 0.00 in 0.00 W/m2
06:23 38.2 °F 36.4 °F 29.74 in NNW 6.9 mph 12.6 mph 93% 0.00 in 0.00 W/m2
06:28 38.2 °F 36.4 °F 29.74 in NW 6.9 mph 9.2 mph 93% 0.00 in 0.00 W/m2
06:33 38.2 °F 36.4 °F 29.74 in NNW 8.1 mph 11.5 mph 93% 0.00 in 0.00 W/m2
peotoneweather.com
Compliments of Weather Underground - 1 mb